{"data":{"norad_id":64427,"intl_designator":"2025-129R","name":"STARLINK-34480","alt_names":[],"object_type":"PAYLOAD","status":"ACTIVE","operator":null,"country":"US","launch_date":"2025-06-17","launch_site_code":"AFWTR","launch_vehicle":null,"mission":null,"orbit_class":"UNKNOWN","rcs_meters":null,"size_class":null,"mass_kg":null,"dimensions":null,"purposes":["comms"],"wikipedia_slug":null,"has_3d_model":false,"image_url":null,"decayed_at":null,"tle_current":{"epoch":"2026-09-20T12:55:17.499072Z","epoch_age_seconds":130916,"freshness":"FRESH","line1":"1 64427U 25129R   26263.53839698  .00007932  00000+0  28001-3 0  9996","line2":"2 64427  69.9999 300.7798 0003223 269.7945  90.2861 15.29586283 70532","mean_motion":15.29586283,"eccentricity":0.0003223,"inclination_deg":69.9999,"raan_deg":300.7798,"arg_perigee_deg":269.7945,"mean_anomaly_deg":90.2861,"bstar":0.00028001,"rev_number":7053,"period_min":94.143103661711,"perigee_km":474.83870425872,"apogee_km":479.25755659379,"semimajor_km":6855.1851304263,"source":"CELESTRAK","updated_at":"2026-09-21T09:00:35.348967Z"}}}